QPF
0.00 0.00 0.00 0.00 0.02 0.00 0.00 0.00 0.00 0.00 0.00 0.00 0.00 0.00 0.00 0.00 0.02 0.02 0.00 0.00 0.00 0.00 0.00 0.00 0.00 0.00 0.00 0.01 0.02 0.03 0.00 0.00 0.01 0.01 0.00 0.01 0.00 0.00 0.00 0.00 0.00 0.00 0.01 0.00 0.00 0.00 0.00 0.00 0.00
0.00 0.00 0.00 0.00 0.00 0.00 0.00 0.00 0.00 0.00 0.00 0.00 0.00 0.00 0.00 0.00 0.00 0.00 0.00 0.00 0.00 0.00 0.00 0.00 0.00 0.00 0.00 0.01 0.00 0.01 0.00 0.00 0.00 0.00 0.01 0.01 0.00 0.00 0.00 0.00 0.00 0.00 0.01 0.00 0.00 0.00 0.00 0.00 0.00
0.00 0.00 0.00 0.00 0.00 0.00 0.00 0.00 0.00 0.00 0.00 0.00 0.00 0.00 0.00 0.00 0.00 0.00 0.00 0.00 0.00 0.00 0.00 0.00 0.00 0.01 0.00 0.04 0.01 0.00 0.00 0.00 0.00 0.00 0.00 0.00 0.00 0.00 0.00 0.00 0.00 0.00 0.00 0.01 0.00 0.00 0.00 0.00 0.01
0.00 0.00 0.00 0.00 0.00 0.00 0.00 0.00 0.00 0.00 0.00 0.00 0.00 0.00 0.00 0.00 0.00 0.00 0.00 0.00 0.00 0.00 0.00 0.00 0.00 0.00 0.01 0.00 0.00 0.00 0.01 0.00 0.00 0.00 0.00 0.00 0.00 0.00 0.00 0.01 0.01 0.00 0.01 0.00 0.00 0.00 0.00 0.00 0.00
0.00 0.00 0.00 0.00 0.00 0.00 0.00 0.00 0.00 0.00 0.00 0.00 0.00 0.00 0.00 0.00 0.00 0.00 0.00 0.00 0.00 0.00 0.00 0.00 0.00 0.00 0.00 0.01 0.00 0.00 0.00 0.00 0.00 0.00 0.00 0.00 0.00 0.01 0.04 0.01 0.00 0.01 0.00 0.00 0.01 0.00 0.00 0.00 0.00
0.00 0.00 0.00 0.00 0.00 0.00 0.00 0.00 0.00 0.00 0.00 0.00 0.00 0.00 0.00 0.00 0.00 0.00 0.00 0.00 0.00 0.00 0.00 0.00 0.00 0.00 0.00 0.00 0.00 0.00 0.00 0.00 0.00 0.01 0.01 0.01 0.00 0.03 0.01 0.02 0.00 0.00 0.01 0.00 0.00 0.00 0.00 0.00 0.00
0.00 0.00 0.00 0.00 0.00 0.00 0.00 0.00 0.00 0.00 0.00 0.00 0.00 0.00 0.00 0.00 0.00 0.00 0.00 0.00 0.00 0.00 0.00 0.00 0.00 0.00 0.00 0.00 0.00 0.01 0.00 0.00 0.00 0.00 0.00 0.00 0.00 0.02 0.01 0.01 0.00 0.00 0.00 0.00 0.02 0.00 0.00 0.00 0.00
0.00 0.00 0.00 0.00 0.00 0.00 0.00 0.00 0.00 0.00 0.00 0.00 0.00 0.00 0.00 0.00 0.00 0.00 0.00 0.00 0.00 0.00 0.00 0.00 0.00 0.00 0.00 0.00 0.00 0.00 0.00 0.00 0.00 0.00 0.02 0.01 0.02 0.04 0.06 0.00 0.01 0.02 0.02 0.01 0.00 0.00 0.00 0.00 0.00
0.00 0.00 0.00 0.00 0.00 0.00 0.00 0.00 0.00 0.00 0.00 0.00 0.00 0.00 0.00 0.00 0.00 0.00 0.00 0.00 0.00 0.00 0.00 0.00 0.00 0.00 0.00 0.00 0.00 0.00 0.00 0.01 0.01 0.00 0.00 0.02 0.03 0.09 0.07 0.01 0.00 0.00 0.00 0.04 0.04 0.00 0.00 0.00 0.00
0.00 0.00 0.00 0.00 0.00 0.00 0.00 0.00 0.00 0.00 0.00 0.00 0.00 0.00 0.00 0.00 0.00 0.00 0.00 0.00 0.00 0.00 0.00 0.00 0.00 0.00 0.00 0.00 0.00 0.00 0.00 0.00 0.00 0.00 0.01 0.01 0.00 0.00 0.00 0.00 0.00 0.00 0.00 0.00 0.01 0.04 0.04 0.00 0.00
0.00 0.00 0.00 0.00 0.00 0.00 0.00 0.00 0.00 0.00 0.00 0.00 0.00 0.00 0.00 0.00 0.00 0.00 0.00 0.00 0.00 0.00 0.00 0.00 0.00 0.00 0.00 0.00 0.00 0.00 0.00 0.00 0.00 0.00 0.00 0.01 0.00 0.00 0.00 0.00 0.01 0.01 0.03 0.06 0.09 0.04 0.03 0.00 0.00
0.00 0.00 0.00 0.00 0.00 0.00 0.00 0.00 0.00 0.00 0.00 0.00 0.00 0.00 0.00 0.00 0.00 0.00 0.00 0.00 0.00 0.00 0.00 0.00 0.00 0.00 0.00 0.00 0.00 0.00 0.00 0.00 0.00 0.00 0.00 0.01 0.00 0.01 0.00 0.00 0.00 0.04 0.02 0.03 0.01 0.01 0.02 0.01 0.00
0.00 0.00 0.00 0.00 0.00 0.00 0.00 0.00 0.00 0.00 0.00 0.00 0.00 0.00 0.00 0.00 0.00 0.00 0.00 0.00 0.00 0.00 0.00 0.00 0.00 0.00 0.00 0.00 0.00 0.00 0.00 0.00 0.01 0.00 0.00 0.00 0.00 0.02 0.08 0.04 0.00 0.03 0.01 0.00 0.00 0.00 0.00 0.00 0.00
0.00 0.00 0.00 0.00 0.00 0.00 0.00 0.00 0.00 0.00 0.00 0.00 0.00 0.00 0.00 0.00 0.00 0.00 0.00 0.00 0.00 0.00 0.00 0.00 0.00 0.00 0.00 0.00 0.00 0.00 0.00 0.00 0.00 0.00 0.00 0.00 0.00 0.00 0.02 0.09 0.06 0.08 0.08 0.02 0.01 0.00 0.00 0.00 0.07
0.00 0.00 0.00 0.00 0.00 0.00 0.00 0.00 0.00 0.00 0.00 0.00 0.00 0.00 0.00 0.00 0.00 0.00 0.00 0.00 0.00 0.00 0.00 0.00 0.00 0.00 0.00 0.00 0.00 0.00 0.00 0.00 0.00 0.00 0.00 0.00 0.00 0.01 0.08 0.10 0.07 0.07 0.10 0.04 0.07 0.02 0.00 0.00 0.06
0.00 0.00 0.00 0.00 0.00 0.00 0.00 0.00 0.00 0.00 0.00 0.00 0.00 0.00 0.00 0.00 0.00 0.00 0.00 0.00 0.00 0.00 0.00 0.00 0.00 0.00 0.00 0.00 0.00 0.00 0.00 0.00 0.00 0.00 0.00 0.00 0.04 0.08 0.09 0.06 0.03 0.01 0.00 0.02 0.11 0.17 0.15 0.09 0.11
0.00 0.00 0.00 0.00 0.00 0.00 0.00 0.00 0.00 0.00 0.00 0.00 0.00 0.00 0.00 0.00 0.00 0.00 0.00 0.00 0.00 0.00 0.00 0.00 0.00 0.00 0.00 0.00 0.00 0.00 0.00 0.00 0.00 0.00 0.00 0.00 0.04 0.07 0.01 0.00 0.00 0.00 0.01 0.05 0.08 0.15 0.18 0.21 0.11
0.00 0.00 0.00 0.00 0.00 0.00 0.00 0.00 0.00 0.00 0.00 0.00 0.00 0.00 0.00 0.00 0.00 0.00 0.00 0.00 0.00 0.00 0.00 0.00 0.00 0.00 0.00 0.00 0.00 0.00 0.00 0.00 0.00 0.00 0.00 0.00 0.01 0.01 0.00 0.00 0.00 0.00 0.00 0.07 0.09 0.09 0.13 0.13 0.06
0.00 0.00 0.00 0.00 0.00 0.00 0.00 0.00 0.00 0.00 0.00 0.00 0.00 0.00 0.00 0.00 0.00 0.00 0.00 0.00 0.00 0.00 0.00 0.00 0.00 0.00 0.00 0.00 0.00 0.00 0.00 0.00 0.00 0.00 0.00 0.00 0.02 0.01 0.00 0.01 0.03 0.01 0.01 0.03 0.04 0.03 0.03 0.03 0.02
0.00 0.00 0.00 0.00 0.00 0.00 0.00 0.00 0.00 0.00 0.00 0.00 0.00 0.00 0.00 0.00 0.00 0.00 0.00 0.00 0.00 0.00 0.00 0.00 0.00 0.00 0.00 0.00 0.00 0.00 0.00 0.00 0.00 0.00 0.01 0.02 0.10 0.09 0.03 0.02 0.03 0.01 0.00 0.01 0.00 0.00 0.00 0.00 0.00
0.00 0.00 0.00 0.00 0.00 0.00 0.00 0.00 0.00 0.00 0.00 0.00 0.00 0.00 0.00 0.00 0.00 0.00 0.00 0.00 0.00 0.00 0.00 0.00 0.00 0.00 0.00 0.00 0.00 0.00 0.03 0.06 0.00 0.00 0.01 0.01 0.04 0.07 0.04 0.03 0.00 0.00 0.00 0.00 0.00 0.00 0.01 0.02 0.00
0.00 0.00 0.00 0.00 0.00 0.00 0.00 0.00 0.00 0.00 0.00 0.00 0.00 0.00 0.00 0.00 0.00 0.00 0.00 0.00 0.00 0.00 0.00 0.00 0.00 0.00 0.00 0.00 0.00 0.00 0.02 0.01 0.00 0.00 0.01 0.02 0.02 0.01 0.02 0.02 0.00 0.00 0.00 0.00 0.00 0.00 0.01 0.02 0.00
0.00 0.00 0.00 0.00 0.00 0.00 0.00 0.00 0.00 0.00 0.00 0.00 0.00 0.00 0.00 0.00 0.00 0.00 0.00 0.00 0.00 0.00 0.00 0.00 0.00 0.00 0.00 0.00 0.00 0.00 0.00 0.00 0.00 0.00 0.00 0.03 0.04 0.01 0.00 0.00 0.00 0.00 0.00 0.00 0.00 0.00 0.00 0.00 0.00
0.00 0.00 0.00 0.00 0.00 0.00 0.00 0.00 0.00 0.00 0.00 0.00 0.00 0.00 0.00 0.00 0.00 0.00 0.00 0.00 0.00 0.00 0.00 0.00 0.00 0.00 0.00 0.00 0.00 0.00 0.00 0.00 0.00 0.00 0.01 0.03 0.02 0.00 0.00 0.00 0.00 0.00 0.00 0.00 0.00 0.00 0.00 0.00 0.00
0.00 0.00 0.00 0.00 0.00 0.00 0.00 0.00 0.00 0.00 0.00 0.00 0.00 0.00 0.00 0.00 0.00 0.00 0.00 0.00 0.00 0.00 0.00 0.00 0.00 0.00 0.00 0.00 0.00 0.00 0.00 0.00 0.00 0.00 0.00 0.00 0.00 0.00 0.00 0.00 0.00 0.00 0.00 0.00 0.00 0.00 0.00 0.00 0.00
0.00 0.00 0.00 0.00 0.00 0.00 0.00 0.00 0.00 0.00 0.00 0.00 0.00 0.00 0.00 0.00 0.00 0.00 0.00 0.00 0.00 0.00 0.00 0.00 0.00 0.00 0.00 0.00 0.00 0.00 0.00 0.00 0.00 0.00 0.00 0.00 0.00 0.00 0.00 0.00 0.00 0.00 0.00 0.00 0.00 0.00 0.00 0.00 0.00
0.00 0.00 0.00 0.00 0.00 0.00 0.00 0.00 0.00 0.00 0.00 0.00 0.00 0.00 0.00 0.00 0.00 0.00 0.00 0.00 0.00 0.00 0.00 0.00 0.00 0.00 0.00 0.00 0.00 0.00 0.00 0.01 0.02 0.00 0.00 0.00 0.00 0.00 0.00 0.00 0.00 0.00 0.00 0.00 0.00 0.00 0.00 0.00 0.00
0.00 0.00 0.00 0.00 0.00 0.00 0.00 0.00 0.00 0.00 0.00 0.00 0.00 0.00 0.00 0.00 0.00 0.00 0.00 0.00 0.00 0.00 0.00 0.00 0.00 0.00 0.00 0.00 0.00 0.00 0.00 0.04 0.04 0.00 0.00 0.00 0.00 0.00 0.00 0.00 0.00 0.00 0.00 0.00 0.00 0.00 0.00 0.00 0.00
0.00 0.00 0.00 0.00 0.00 0.00 0.00 0.00 0.00 0.00 0.00 0.00 0.00 0.00 0.00 0.00 0.00 0.00 0.00 0.00 0.00 0.00 0.00 0.00 0.00 0.00 0.00 0.00 0.00 0.00 0.00 0.01 0.02 0.00 0.00 0.00 0.00 0.02 0.03 0.04 0.03 0.00 0.00 0.00 0.01 0.00 0.00 0.00 0.00
0.00 0.00 0.00 0.00 0.00 0.00 0.00 0.00 0.00 0.00 0.00 0.00 0.00 0.00 0.00 0.00 0.00 0.00 0.00 0.00 0.00 0.00 0.00 0.00 0.00 0.00 0.00 0.00 0.00 0.00 0.07 0.07 0.05 0.01 0.00 0.00 0.01 0.04 0.05 0.06 0.04 0.00 0.00 0.00 0.00 0.00 0.00 0.00 0.00
MSLP
1006.08 1005.17 1004.21 1003.61 1002.64 1000.10 1000.23 1000.18 999.98 1000.09 1000.64 1001.16 1002.05 1001.73 1002.74 1003.76 1004.17 1005.20 1006.84 1007.52 1008.60 1009.90 1011.51 1012.16 1012.81 1013.07 1013.32 1013.60 1013.78 1013.93 1014.10 1014.20 1014.34 1014.55 1014.78 1014.93 1014.93 1015.00 1015.08 1015.10 1015.22 1015.36 1015.41 1015.48 1015.47 1015.44 1015.51 1015.66 1015.72
1004.05 1004.15 1003.77 1001.84 1000.55 999.60 1000.11 1000.46 1000.69 1001.17 1001.42 1001.93 1002.46 1002.42 1002.78 1004.49 1005.10 1005.85 1006.80 1008.16 1008.75 1009.75 1010.75 1011.84 1012.96 1013.22 1013.52 1013.78 1013.93 1014.11 1014.26 1014.42 1014.60 1014.72 1014.96 1015.05 1015.13 1015.22 1015.27 1015.31 1015.46 1015.56 1015.61 1015.61 1015.65 1015.61 1015.67 1015.70 1015.87
1004.48 1003.78 1001.76 999.94 999.66 999.62 1000.23 1000.66 1001.16 1001.69 1001.82 1001.90 1002.62 1002.92 1003.47 1005.49 1005.94 1006.39 1007.44 1008.30 1008.76 1009.68 1010.37 1012.52 1013.19 1013.49 1013.84 1014.16 1014.15 1014.33 1014.48 1014.63 1014.84 1014.96 1015.13 1015.24 1015.36 1015.42 1015.48 1015.58 1015.72 1015.72 1015.79 1015.80 1015.74 1015.77 1015.85 1015.92 1016.05
1003.04 1002.16 1001.16 999.44 999.77 1000.12 1000.16 1000.86 1001.09 1001.21 1001.96 1002.44 1002.68 1004.07 1005.60 1005.71 1006.16 1006.90 1008.00 1008.36 1008.94 1009.39 1010.62 1012.92 1013.37 1013.70 1014.01 1014.13 1014.35 1014.48 1014.60 1014.81 1014.95 1015.08 1015.19 1015.37 1015.51 1015.58 1015.68 1015.77 1015.79 1015.91 1015.92 1016.00 1015.98 1016.00 1016.01 1016.06 1016.22
1002.69 1000.88 999.37 999.08 999.91 1000.29 1000.64 1001.00 1000.88 1000.89 1001.96 1002.36 1002.68 1004.33 1005.81 1006.38 1006.83 1007.66 1008.21 1008.41 1008.95 1009.30 1011.35 1012.78 1013.54 1013.85 1014.17 1014.44 1014.62 1014.69 1014.83 1014.96 1015.08 1015.18 1015.24 1015.38 1015.50 1015.66 1015.86 1015.88 1015.95 1015.98 1016.08 1016.11 1016.17 1016.20 1016.31 1016.34 1016.37
1000.60 999.01 998.26 998.82 999.81 1000.32 1000.70 1001.10 1000.79 1001.41 1002.29 1003.00 1003.79 1004.74 1006.12 1007.07 1007.42 1007.92 1008.26 1008.43 1008.94 1009.73 1011.05 1012.66 1013.69 1014.02 1014.33 1014.59 1014.76 1014.86 1015.01 1015.13 1015.27 1015.37 1015.44 1015.53 1015.69 1015.84 1015.92 1015.97 1016.02 1016.06 1016.11 1016.19 1016.31 1016.32 1016.40 1016.47 1016.52
999.37 998.01 998.25 998.90 999.53 1000.39 1000.86 1001.12 1000.94 1001.57 1001.96 1002.83 1003.52 1004.67 1006.38 1007.00 1007.61 1008.07 1008.28 1008.64 1009.18 1009.68 1010.71 1012.14 1012.85 1013.77 1014.34 1014.64 1014.82 1014.95 1015.13 1015.32 1015.39 1015.53 1015.59 1015.66 1015.75 1015.83 1015.88 1016.00 1016.01 1016.05 1016.07 1016.20 1016.31 1016.39 1016.47 1016.50 1016.55
999.69 998.56 998.21 998.90 999.53 1000.75 1001.25 1001.34 1001.71 1001.54 1002.64 1003.18 1003.44 1004.26 1005.80 1006.83 1007.59 1007.93 1008.08 1008.68 1009.43 1009.73 1010.82 1011.74 1012.36 1013.08 1013.54 1014.18 1014.76 1014.99 1015.26 1015.43 1015.55 1015.59 1015.62 1015.65 1015.72 1015.76 1015.80 1015.87 1015.98 1016.05 1016.05 1016.12 1016.26 1016.35 1016.47 1016.47 1016.41
999.41 998.64 998.37 999.17 999.63 1000.64 1001.32 1001.30 1002.06 1002.42 1002.89 1003.13 1003.58 1003.49 1005.24 1006.90 1007.46 1007.79 1008.00 1008.58 1009.59 1009.94 1010.27 1011.13 1011.77 1012.42 1012.64 1012.95 1014.30 1015.05 1015.30 1015.40 1015.49 1015.48 1015.55 1015.63 1015.39 1015.57 1015.67 1015.62 1015.80 1015.94 1016.00 1016.07 1016.05 1016.14 1016.21 1016.27 1016.20
998.29 998.23 999.19 999.89 999.67 1000.27 1001.08 1001.29 1002.02 1002.36 1003.05 1003.55 1003.85 1004.38 1005.84 1006.94 1007.36 1007.60 1007.89 1008.45 1009.35 1009.85 1010.31 1010.41 1011.15 1011.46 1012.16 1011.99 1013.75 1013.87 1014.13 1014.24 1014.38 1014.41 1015.10 1015.55 1015.51 1015.10 1015.11 1015.21 1015.61 1015.74 1015.78 1015.75 1015.79 1015.84 1015.93 1015.85 1014.83
999.02 998.91 999.39 1000.07 1000.50 1000.19 1000.88 1001.22 1001.67 1001.99 1001.90 1002.74 1003.90 1005.03 1006.01 1006.72 1007.23 1007.56 1007.87 1008.37 1009.02 1009.86 1009.97 1010.11 1010.76 1011.19 1011.88 1011.84 1012.69 1013.07 1013.05 1013.26 1013.79 1014.44 1014.56 1015.04 1015.31 1015.44 1015.38 1014.71 1014.88 1015.03 1015.67 1015.23 1015.63 1015.58 1015.36 1015.12 1014.76
998.81 999.15 999.66 1000.25 1000.79 1000.49 1000.60 1001.19 1001.44 1001.89 1002.45 1002.59 1003.94 1005.18 1006.00 1006.48 1006.84 1007.16 1007.62 1008.37 1009.04 1009.96 1010.14 1010.27 1010.87 1011.72 1011.75 1011.98 1012.42 1012.15 1012.33 1012.87 1012.91 1013.47 1014.29 1014.44 1014.41 1015.16 1015.13 1014.56 1014.64 1014.73 1014.59 1015.35 1015.45 1015.52 1015.56 1014.82 1014.35
998.81 999.15 999.65 1000.29 1000.65 1000.52 1000.95 1001.09 1001.43 1002.20 1002.53 1003.23 1004.25 1005.25 1005.79 1006.17 1006.50 1006.84 1007.31 1008.14 1009.06 1009.91 1010.34 1010.76 1011.28 1012.07 1012.41 1012.65 1012.42 1011.93 1012.15 1012.75 1013.07 1013.22 1013.86 1014.13 1013.87 1014.81 1014.81 1014.56 1014.44 1014.47 1014.94 1015.06 1015.04 1015.41 1015.65 1015.46 1014.96
999.33 999.25 999.63 999.93 1000.23 1000.56 1000.38 1000.86 1001.17 1002.27 1002.84 1003.59 1004.38 1005.05 1005.47 1005.79 1006.20 1006.63 1007.13 1007.91 1008.92 1009.70 1010.16 1010.70 1011.41 1012.23 1012.55 1012.94 1012.96 1012.70 1012.63 1012.41 1012.87 1013.27 1013.77 1013.79 1014.01 1014.02 1014.11 1014.21 1014.20 1014.15 1014.05 1014.00 1014.32 1014.70 1015.23 1015.21 1014.51
999.28 998.87 999.08 999.36 999.66 999.76 1000.22 1001.00 1000.41 1001.80 1002.81 1003.55 1004.23 1004.75 1005.12 1005.54 1006.06 1006.60 1007.10 1007.78 1008.69 1009.38 1009.83 1010.37 1011.25 1011.83 1012.62 1012.82 1013.16 1013.13 1012.69 1012.47 1012.49 1012.59 1013.21 1013.85 1013.99 1013.52 1013.97 1014.38 1014.01 1013.71 1014.25 1013.68 1014.18 1014.68 1014.91 1015.00 1014.13
998.99 998.63 998.00 999.24 999.21 999.48 1000.05 999.42 1000.22 1001.54 1002.46 1003.08 1003.83 1004.48 1004.88 1005.36 1005.91 1006.69 1007.24 1007.96 1008.75 1009.06 1009.70 1010.45 1010.84 1011.20 1012.28 1012.53 1012.86 1012.64 1012.78 1012.40 1012.53 1012.81 1013.08 1013.14 1013.54 1014.04 1014.13 1014.04 1013.91 1013.53 1013.50 1012.84 1013.94 1014.43 1014.55 1014.30 1013.93
998.02 997.94 997.84 998.29 998.95 998.97 999.01 998.88 999.98 1001.27 1001.87 1002.58 1003.35 1004.01 1004.51 1005.05 1005.62 1006.45 1007.10 1007.92 1008.75 1009.50 1009.96 1010.50 1010.88 1011.01 1011.74 1012.49 1012.65 1012.70 1012.44 1012.80 1012.43 1012.93 1013.20 1013.20 1013.54 1013.69 1013.86 1013.44 1013.19 1013.50 1013.10 1013.52 1013.80 1014.23 1014.37 1014.16 1013.91
997.60 997.13 997.57 998.01 998.64 998.96 998.64 998.28 999.33 1000.50 1001.05 1001.76 1002.58 1003.43 1004.07 1004.57 1005.14 1005.98 1006.63 1007.57 1008.35 1009.55 1010.13 1010.71 1010.76 1011.10 1011.61 1012.23 1012.74 1012.55 1012.54 1012.64 1012.50 1012.77 1012.85 1012.82 1013.07 1013.62 1013.66 1012.98 1013.10 1013.53 1013.17 1013.86 1014.23 1014.08 1013.98 1013.80 1013.41
997.57 997.53 997.43 997.95 999.08 999.09 998.34 998.23 998.32 999.48 1000.33 1000.72 1001.57 1002.62 1003.38 1003.93 1004.48 1005.28 1006.29 1006.85 1007.61 1008.90 1010.01 1010.62 1010.83 1011.13 1011.59 1011.96 1012.13 1012.26 1012.14 1012.16 1012.49 1012.50 1012.35 1012.79 1013.02 1013.28 1013.62 1013.38 1013.57 1013.37 1013.44 1013.88 1013.93 1013.89 1013.46 1013.05 1012.68
997.78 998.29 997.67 997.64 998.41 999.00 998.36 997.91 997.74 998.33 999.33 999.96 1000.41 1001.29 1002.45 1003.18 1003.68 1004.52 1005.46 1006.14 1007.04 1007.86 1008.95 1009.98 1010.43 1010.93 1011.50 1011.48 1011.69 1011.54 1011.77 1012.07 1012.50 1012.67 1012.73 1012.95 1013.27 1013.55 1013.51 1013.61 1013.37 1013.66 1013.51 1013.22 1013.63 1013.86 1013.27 1012.27 1011.97
998.10 998.16 997.56 998.04 997.93 998.51 998.04 997.20 996.89 997.07 997.89 998.86 999.52 1000.10 1001.03 1002.00 1002.71 1003.45 1004.40 1005.31 1006.18 1007.11 1008.03 1008.94 1009.93 1010.53 1011.06 1011.02 1011.40 1011.68 1011.79 1012.33 1012.61 1012.67 1013.08 1013.23 1013.40 1013.57 1013.50 1013.72 1013.61 1013.72 1013.64 1013.27 1013.84 1013.59 1013.61 1013.35 1012.45
998.00 998.08 998.09 997.82 998.51 997.67 997.27 996.43 997.23 996.04 997.03 997.47 998.27 998.93 999.67 1000.91 1001.81 1002.33 1003.05 1004.20 1005.13 1006.17 1007.29 1008.19 1009.24 1010.03 1010.69 1010.96 1010.77 1011.12 1011.33 1011.89 1011.96 1012.18 1012.99 1013.10 1013.09 1013.32 1013.40 1013.52 1013.69 1013.87 1013.75 1013.89 1013.73 1013.89 1014.09 1013.62 1012.74
998.08 997.95 997.67 997.91 998.19 997.80 997.10 996.45 995.26 996.35 995.90 995.84 996.97 997.60 998.61 999.51 1000.69 1001.51 1002.02 1003.06 1004.04 1005.12 1006.21 1007.47 1008.68 1009.76 1010.26 1010.78 1010.94 1011.04 1011.33 1011.16 1011.46 1011.98 1012.75 1013.11 1013.42 1013.22 1013.16 1013.68 1013.91 1014.06 1013.69 1014.13 1014.40 1014.44 1014.47 1013.93 1013.74
998.38 998.24 998.11 998.46 998.15 997.25 996.47 995.99 995.00 995.57 999.13 994.97 995.55 996.22 997.47 998.48 999.70 1000.62 1001.35 1001.91 1003.17 1004.40 1005.68 1006.95 1008.29 1009.36 1010.19 1010.59 1011.09 1011.03 1011.09 1011.00 1011.18 1011.81 1012.50 1013.09 1013.17 1013.02 1013.63 1013.86 1014.16 1014.22 1014.13 1014.39 1014.43 1014.65 1014.61 1014.55 1014.17
998.48 998.19 997.56 997.54 996.99 996.29 995.76 995.30 994.61 994.46 994.73 994.79 995.31 995.71 996.71 997.80 998.77 999.72 1000.67 1001.30 1002.54 1003.94 1005.40 1006.83 1008.14 1009.12 1009.82 1010.30 1010.74 1011.06 1011.11 1011.53 1011.58 1011.91 1011.77 1011.65 1011.92 1012.75 1014.01 1014.20 1014.23 1014.01 1014.38 1014.55 1014.62 1014.64 1014.33 1014.45 1014.35
997.82 997.61 996.89 996.34 995.84 995.20 994.83 994.53 994.25 994.34 994.39 994.76 995.14 995.40 996.36 997.09 998.08 999.09 1000.02 1001.07 1002.38 1003.83 1005.17 1006.40 1007.81 1008.87 1009.49 1010.01 1010.51 1010.98 1011.21 1011.34 1011.39 1011.55 1011.00 1011.34 1011.89 1012.82 1013.98 1014.31 1014.30 1014.24 1014.40 1014.51 1014.66 1014.25 1014.52 1014.61 1014.31
997.01 997.31 997.06 996.20 995.57 995.13 995.24 998.22 995.20 994.55 994.49 994.32 994.38 994.98 995.73 996.62 997.52 998.61 999.40 1000.56 1002.01 1003.70 1004.95 1006.03 1007.33 1008.27 1008.95 1009.52 1010.17 1010.53 1010.94 1010.80 1010.76 1011.31 1011.86 1012.09 1012.40 1013.32 1013.76 1014.12 1014.32 1014.28 1014.37 1014.71 1014.80 1014.37 1014.66 1014.91 1014.61
997.37 996.56 996.62 996.36 995.73 995.20 994.74 995.37 994.09 994.26 994.18 994.35 994.20 995.07 994.86 996.25 997.14 997.91 998.90 1000.11 1001.55 1003.23 1004.76 1005.73 1006.79 1007.53 1008.19 1008.95 1009.71 1010.05 1010.41 1010.82 1011.36 1011.89 1012.13 1012.32 1012.86 1013.35 1013.90 1013.86 1014.03 1014.21 1014.64 1014.83 1014.98 1014.69 1015.08 1015.34 1015.09
997.22 996.95 996.81 995.96 995.64 995.37 994.78 994.61 995.06 993.71 993.91 994.19 994.42 994.72 995.16 995.60 996.80 997.48 998.58 1000.00 1001.45 1002.71 1004.11 1005.15 1006.22 1007.00 1007.94 1008.49 1009.23 1009.70 1010.06 1010.63 1011.29 1011.71 1012.25 1012.78 1013.26 1013.53 1013.88 1014.18 1014.40 1014.50 1014.71 1015.21 1015.25 1015.31 1015.48 1015.42 1015.34
996.31 996.24 996.44 995.62 995.57 994.72 994.58 994.98 995.70 993.87 993.84 994.01 994.24 994.86 995.62 996.17 996.39 997.51 998.49 999.99 1001.40 1002.56 1003.63 1004.66 1005.75 1006.77 1007.56 1008.08 1008.84 1009.61 1009.93 1010.58 1010.85 1011.35 1012.07 1012.53 1013.19 1013.84 1014.03 1014.61 1014.87 1014.94 1015.42 1015.81 1015.87 1015.77 1015.82 1015.75 1015.62
Thickness
5851 5857 5865 5851 5814 5844 5816 5820 5843 5831 5824 5841 5837 5832 5819 5816 5799 5779 5818 5818 5810 5798 5783 5778 5774 5772 5770 5767 5767 5766 5765 5765 5764 5764 5762 5762 5760 5760 5760 5760 5759 5758 5757 5757 5757 5758 5756 5754 5753
5873 5866 5860 5854 5829 5820 5813 5831 5818 5824 5834 5839 5834 5833 5824 5800 5820 5816 5813 5814 5812 5802 5792 5783 5774 5772 5769 5768 5767 5766 5766 5765 5764 5765 5763 5763 5761 5761 5760 5760 5758 5757 5757 5757 5756 5757 5756 5756 5754
5871 5871 5855 5855 5840 5818 5809 5829 5826 5830 5838 5834 5824 5836 5826 5799 5817 5817 5821 5817 5813 5805 5798 5780 5774 5772 5769 5767 5767 5766 5766 5765 5763 5764 5763 5763 5761 5761 5761 5759 5758 5758 5757 5757 5757 5757 5757 5756 5753
5872 5869 5862 5849 5826 5835 5835 5834 5838 5835 5836 5837 5833 5806 5815 5828 5820 5824 5822 5820 5813 5809 5799 5779 5775 5773 5770 5768 5768 5767 5766 5765 5765 5764 5764 5763 5762 5761 5760 5759 5759 5758 5757 5756 5756 5757 5756 5755 5753
5875 5867 5843 5846 5833 5840 5846 5847 5848 5838 5831 5831 5834 5806 5801 5820 5827 5823 5820 5820 5813 5812 5795 5782 5775 5773 5770 5768 5767 5767 5767 5766 5765 5765 5765 5764 5764 5762 5760 5759 5759 5759 5757 5757 5756 5755 5753 5753 5752
5860 5884 5857 5835 5835 5844 5849 5851 5850 5839 5833 5827 5817 5809 5802 5820 5818 5818 5821 5819 5817 5809 5799 5785 5777 5774 5771 5769 5768 5768 5767 5766 5766 5765 5765 5765 5763 5761 5760 5760 5760 5760 5759 5758 5756 5754 5753 5753 5752
5865 5876 5855 5846 5841 5835 5842 5857 5845 5838 5835 5825 5833 5803 5806 5811 5818 5820 5820 5819 5815 5811 5802 5791 5785 5778 5773 5771 5770 5769 5768 5767 5767 5766 5765 5764 5763 5762 5762 5761 5761 5760 5760 5759 5757 5756 5754 5753 5752
5877 5875 5863 5859 5839 5824 5847 5850 5851 5845 5827 5846 5843 5807 5798 5814 5821 5821 5821 5817 5812 5812 5803 5795 5790 5785 5781 5777 5773 5771 5768 5767 5767 5766 5765 5765 5764 5764 5764 5763 5762 5761 5761 5760 5759 5757 5755 5754 5754
5897 5855 5852 5850 5845 5838 5854 5843 5853 5856 5837 5840 5839 5839 5830 5824 5824 5817 5814 5812 5807 5807 5808 5802 5796 5791 5790 5789 5778 5772 5770 5769 5768 5768 5766 5765 5766 5765 5765 5766 5764 5762 5762 5761 5760 5759 5758 5756 5756
5883 5865 5851 5864 5871 5854 5854 5851 5846 5839 5831 5827 5831 5839 5832 5823 5817 5812 5808 5805 5802 5802 5804 5808 5803 5801 5795 5797 5783 5782 5780 5779 5777 5777 5770 5767 5766 5769 5770 5769 5766 5765 5763 5763 5762 5760 5760 5760 5767
5877 5854 5870 5866 5868 5873 5857 5853 5858 5841 5833 5839 5826 5825 5825 5820 5815 5811 5809 5808 5805 5803 5806 5809 5805 5802 5797 5798 5791 5788 5789 5787 5783 5777 5775 5771 5768 5768 5768 5773 5772 5770 5766 5767 5763 5762 5763 5765 5767
5866 5878 5872 5868 5868 5867 5858 5862 5850 5850 5843 5858 5845 5835 5826 5818 5815 5814 5810 5806 5805 5800 5803 5806 5804 5797 5797 5796 5793 5795 5795 5790 5790 5784 5777 5776 5776 5770 5769 5774 5774 5773 5774 5768 5766 5763 5763 5766 5769
5872 5874 5877 5873 5869 5870 5868 5855 5852 5846 5858 5858 5847 5835 5827 5823 5821 5821 5817 5812 5806 5798 5799 5800 5799 5793 5791 5790 5792 5796 5795 5790 5788 5787 5782 5779 5781 5774 5773 5773 5774 5774 5770 5769 5768 5763 5761 5762 5764
5876 5877 5872 5875 5870 5868 5860 5857 5860 5852 5860 5849 5842 5834 5832 5828 5824 5821 5817 5810 5804 5801 5800 5800 5796 5791 5788 5786 5787 5790 5790 5792 5789 5787 5783 5781 5778 5778 5777 5777 5775 5776 5777 5776 5774 5770 5763 5762 5766
5879 5865 5874 5874 5873 5867 5870 5840 5851 5861 5857 5845 5840 5837 5835 5832 5830 5821 5820 5812 5808 5804 5804 5801 5796 5794 5788 5787 5784 5785 5789 5792 5792 5790 5784 5780 5778 5782 5778 5774 5777 5779 5775 5778 5775 5769 5765 5763 5769
5864 5872 5855 5865 5874 5873 5862 5790 5859 5866 5854 5845 5842 5838 5836 5833 5831 5826 5823 5815 5810 5808 5802 5800 5801 5799 5791 5789 5786 5788 5787 5791 5791 5788 5785 5784 5781 5777 5775 5776 5776 5779 5777 5783 5774 5769 5766 5768 5770
5871 5842 5856 5861 5877 5872 5866 5852 5863 5866 5858 5848 5845 5841 5838 5834 5834 5830 5826 5818 5811 5804 5800 5797 5798 5799 5794 5788 5787 5788 5789 5787 5789 5785 5783 5784 5780 5778 5776 5779 5779 5775 5778 5776 5773 5768 5766 5766 5768
5843 5860 5862 5855 5867 5867 5863 5866 5869 5867 5861 5854 5850 5845 5840 5836 5835 5835 5831 5825 5818 5806 5801 5797 5799 5798 5795 5790 5786 5789 5789 5788 5788 5785 5785 5784 5781 5777 5776 5780 5778 5772 5775 5769 5766 5766 5768 5768 5771
5873 5865 5861 5866 5866 5857 5864 5867 5873 5871 5864 5859 5856 5849 5844 5841 5846 5844 5836 5833 5826 5814 5802 5798 5796 5796 5794 5790 5787 5786 5786 5789 5787 5787 5787 5783 5780 5777 5773 5776 5773 5772 5770 5765 5765 5765 5767 5769 5775
5867 5849 5858 5875 5871 5858 5860 5862 5881 5875 5868 5867 5864 5859 5850 5847 5847 5845 5841 5837 5830 5823 5815 5805 5802 5799 5794 5795 5794 5796 5794 5792 5789 5786 5785 5783 5778 5774 5773 5772 5774 5770 5769 5771 5765 5762 5764 5774 5778
5850 5845 5859 5848 5868 5865 5861 5856 5868 5881 5880 5877 5875 5874 5867 5857 5851 5849 5845 5841 5838 5829 5824 5817 5810 5806 5802 5804 5802 5799 5798 5792 5786 5786 5782 5780 5777 5774 5773 5771 5771 5770 5769 5769 5763 5764 5760 5757 5770
5832 5865 5861 5859 5838 5827 5872 5829 5836 5874 5869 5874 5874 5875 5873 5865 5863 5861 5856 5848 5844 5838 5834 5827 5819 5813 5809 5807 5807 5801 5796 5787 5791 5790 5783 5779 5778 5776 5774 5771 5769 5768 5767 5764 5765 5763 5759 5760 5762
5838 5867 5866 5856 5842 5845 5852 5844 5873 5875 5872 5875 5876 5880 5879 5876 5870 5863 5863 5859 5855 5849 5841 5832 5822 5814 5812 5807 5805 5801 5795 5798 5796 5791 5782 5778 5776 5775 5775 5770 5767 5765 5768 5762 5758 5756 5755 5759 5757
5859 5849 5850 5844 5840 5817 5852 5855 5859 5872 5796 5880 5891 5889 5885 5882 5876 5872 5871 5870 5859 5854 5844 5834 5822 5813 5809 5806 5801 5799 5795 5796 5792 5786 5778 5775 5776 5777 5771 5767 5764 5762 5763 5760 5759 5755 5754 5753 5755
5841 5830 5808 5802 5811 5813 5869 5857 5868 5894 5886 5890 5886 5889 5889 5886 5881 5876 5870 5869 5861 5852 5843 5832 5820 5811 5809 5805 5801 5796 5795 5790 5787 5783 5783 5785 5783 5776 5764 5762 5760 5762 5757 5755 5755 5755 5757 5754 5751
5831 5834 5816 5787 5809 5835 5878 5849 5861 5896 5899 5898 5894 5895 5891 5887 5885 5880 5876 5870 5862 5852 5842 5832 5821 5810 5808 5804 5799 5796 5793 5791 5788 5787 5792 5788 5782 5774 5762 5757 5756 5755 5754 5752 5752 5756 5754 5752 5753
5837 5816 5852 5837 5854 5842 5851 5785 5861 5891 5887 5896 5898 5894 5885 5886 5884 5880 5881 5874 5864 5851 5841 5833 5822 5813 5809 5805 5801 5798 5795 5794 5792 5788 5784 5781 5777 5768 5763 5759 5755 5753 5751 5749 5748 5752 5749 5747 5749
5837 5862 5821 5831 5799 5801 5844 5840 5854 5867 5873 5884 5893 5882 5891 5885 5883 5884 5881 5875 5867 5855 5843 5836 5827 5818 5814 5809 5804 5801 5798 5794 5787 5782 5777 5775 5770 5766 5760 5759 5755 5753 5747 5746 5744 5746 5741 5737 5739
5822 5820 5828 5845 5841 5813 5816 5839 5865 5875 5876 5878 5886 5892 5889 5891 5882 5884 5880 5875 5866 5858 5846 5837 5829 5821 5814 5810 5805 5800 5797 5792 5786 5780 5774 5769 5764 5762 5757 5753 5750 5747 5744 5738 5737 5736 5734 5733 5733
5845 5833 5832 5818 5813 5844 5838 5834 5852 5880 5887 5887 5889 5889 5885 5886 5887 5884 5880 5871 5863 5854 5847 5839 5830 5820 5814 5811 5805 5797 5794 5788 5785 5779 5773 5769 5762 5758 5755 5747 5743 5740 5733 5728 5727 5726 5725 5724 5725